Probability
71 52 45 13 0 0 0 0 0 0 0 0 0 0 0 0 0 0 3 3 6 6 16 32 42 35 29 26 23 19 39 42 42 29 32 32 35 45 48 52 58 52 48 52 58 52 52 45 45
52 39 23 3 0 0 0 0 0 0 0 0 0 0 0 0 3 0 3 6 6 6 10 19 32 35 26 23 26 26 29 32 32 35 35 35 35 48 55 55 52 45 42 55 48 45 48 45 55
55 39 10 0 0 0 0 0 0 0 0 0 0 0 0 0 3 0 3 10 10 10 13 23 39 35 26 26 29 35 32 32 29 39 39 42 39 39 45 52 52 42 45 42 42 45 45 45 52
26 6 0 0 0 0 0 0 0 0 0 0 0 0 0 0 0 0 3 6 10 10 13 19 35 35 32 26 32 32 32 29 39 35 42 42 39 42 45 42 39 39 42 42 42 42 45 39 35
13 3 0 0 0 0 0 0 0 0 0 0 0 0 0 0 0 3 3 6 10 6 16 16 35 35 29 23 26 35 35 32 35 39 35 35 35 35 32 29 39 35 35 35 35 39 35 35 39
3 0 0 0 0 0 0 0 0 0 0 0 0 0 0 0 0 0 0 0 0 0 10 16 42 35 29 26 19 26 32 32 32 32 35 32 32 32 32 29 32 32 19 23 32 29 32 32 32
3 0 0 0 0 0 0 0 0 0 0 0 0 0 0 0 0 3 0 0 0 3 6 6 13 26 29 26 26 29 32 35 39 35 39 39 35 35 35 35 29 19 16 13 16 19 29 26 26
0 0 0 0 0 0 0 0 0 0 0 0 0 0 0 0 0 0 0 0 0 3 3 3 3 3 3 10 26 23 32 42 32 35 32 32 35 35 35 35 32 19 13 13 10 10 23 23 19
0 0 0 0 0 0 0 0 0 0 0 0 0 0 0 0 0 0 0 0 0 0 0 0 0 0 0 0 13 19 19 26 26 16 29 19 3 10 26 23 29 23 23 16 19 13 23 26 23
0 0 0 0 0 0 0 0 0 0 0 0 0 3 0 0 0 0 0 0 0 0 0 0 0 0 0 0 0 0 3 3 3 0 0 0 0 0 3 13 29 23 19 19 23 16 10 6 3
0 0 0 0 0 0 0 0 0 0 0 0 0 0 3 0 0 0 0 0 0 0 0 0 0 0 0 0 0 0 0 0 0 0 0 0 0 0 0 0 0 3 3 0 0 0 0 0 0
0 0 0 0 0 0 0 0 0 0 0 0 0 0 0 0 0 0 0 0 0 0 0 0 0 0 0 0 0 0 0 0 0 0 0 0 0 0 0 0 0 0 0 0 0 0 0 0 0
0 0 0 0 0 0 0 0 0 0 0 0 0 0 0 0 0 0 0 0 0 0 0 0 0 0 0 0 0 0 0 0 0 0 0 0 0 0 0 0 0 0 0 0 0 0 0 0 0
0 0 0 0 0 0 0 0 0 0 0 0 0 0 0 0 0 0 0 0 0 0 0 0 0 0 0 0 0 0 0 0 0 0 0 0 0 0 0 0 0 0 0 0 0 0 0 0 0
0 0 0 0 0 0 0 0 0 0 0 0 0 0 0 0 0 0 0 0 0 0 0 0 0 0 0 0 0 0 0 0 0 0 0 0 0 0 0 0 0 0 0 0 0 0 0 0 0
0 0 0 0 0 0 0 0 0 0 0 0 0 0 0 0 0 0 0 0 0 0 0 0 0 0 0 0 0 0 0 0 0 0 0 0 0 0 0 0 0 0 0 0 0 0 0 0 0
0 0 0 0 0 0 0 0 0 0 0 0 0 0 0 0 0 0 0 6 3 0 0 0 0 0 0 0 0 0 0 0 0 0 0 0 0 0 0 0 0 0 0 0 0 0 0 0 0
0 0 0 0 0 0 0 0 0 0 0 0 0 0 0 0 0 0 0 3 3 0 0 0 0 0 0 0 0 0 0 0 0 0 0 0 0 0 0 0 0 0 0 0 0 0 0 0 0
0 0 0 0 0 0 0 0 0 0 0 0 0 0 0 0 0 0 0 3 3 0 0 0 0 0 0 0 0 0 0 0 0 0 0 0 0 0 0 0 0 0 0 0 0 0 0 0 0
0 0 0 0 0 0 0 0 0 0 0 0 0 0 0 0 0 0 0 0 3 0 0 0 0 0 0 0 0 0 0 0 0 0 0 0 0 0 0 0 0 0 0 0 0 0 0 0 0
0 0 0 0 0 0 0 0 0 0 0 0 0 0 0 0 0 0 0 0 0 0 0 0 0 0 0 0 0 0 0 0 0 0 0 0 0 0 0 0 0 0 0 0 0 0 0 0 0
0 0 0 0 0 0 0 0 0 0 0 0 0 0 0 0 0 0 0 0 0 0 0 0 0 0 0 0 0 0 0 0 0 0 0 0 0 0 0 0 0 0 0 0 0 0 0 0 0
0 0 0 0 0 0 0 0 0 0 0 0 0 0 0 0 0 0 0 3 3 3 3 3 0 0 0 0 0 0 0 0 0 0 0 0 0 0 0 0 0 0 0 0 0 0 0 0 0
0 0 0 0 0 0 0 0 0 0 0 0 0 0 0 0 0 0 0 3 3 3 3 3 0 0 0 0 0 0 0 0 0 0 0 0 0 0 0 0 0 0 0 0 0 0 0 0 0
0 0 0 0 0 0 0 0 0 0 0 0 0 0 0 0 0 0 0 3 3 3 3 3 0 0 0 0 0 0 0 0 0 0 0 0 0 0 0 0 0 0 0 0 0 0 0 0 0
0 0 0 0 0 0 0 0 0 0 0 0 0 0 0 0 0 0 0 0 0 3 3 3 0 0 0 0 0 0 0 0 0 0 0 0 0 0 0 0 0 0 0 0 0 0 0 0 0
0 0 0 0 0 0 0 0 0 0 0 0 0 0 0 0 0 0 0 0 0 3 3 0 0 0 0 0 0 0 0 0 0 0 0 0 0 0 0 0 0 0 0 0 0 0 0 0 0
0 0 0 0 0 0 0 0 0 0 0 0 0 0 0 0 0 0 0 0 0 3 0 0 0 0 0 0 0 0 0 0 0 0 0 0 0 0 0 0 0 0 0 0 0 0 0 0 0
0 0 0 0 0 0 0 0 0 0 0 0 0 0 0 0 0 0 0 0 0 0 3 3 3 0 0 0 0 0 0 0 0 0 0 0 0 0 0 0 0 0 0 0 0 0 0 0 0
0 0 0 0 0 0 0 0 0 0 0 0 0 0 0 0 0 0 0 0 0 0 0 0 0 3 0 0 0 0 0 0 0 0 0 0 0 0 0 0 0 0 0 0 0 0 0 0 0
Height
5880 5879 5878 5879 5878 5877 5876 5876 5875 5874 5874 5873 5872 5872 5871 5872 5872 5874 5871 5870 5869 5869 5869 5869 5869 5869 5869 5870 5870 5870 5870 5870 5870 5871 5871 5871 5871 5872 5872 5873 5873 5873 5874 5874 5875 5876 5876 5877 5877
5879 5878 5879 5878 5877 5876 5876 5875 5874 5873 5873 5872 5871 5871 5870 5870 5870 5870 5869 5868 5868 5868 5867 5867 5867 5868 5868 5868 5868 5868 5869 5868 5868 5869 5869 5869 5869 5870 5871 5871 5871 5872 5872 5873 5873 5874 5875 5875 5876
5879 5878 5878 5877 5876 5876 5875 5874 5873 5873 5872 5871 5871 5870 5869 5869 5868 5868 5868 5867 5866 5866 5866 5866 5866 5866 5866 5866 5866 5867 5867 5867 5867 5866 5866 5867 5867 5868 5869 5869 5870 5870 5870 5871 5872 5873 5873 5874 5874
5879 5878 5878 5877 5876 5875 5874 5873 5872 5872 5871 5870 5870 5869 5868 5868 5867 5867 5866 5865 5865 5865 5864 5864 5864 5864 5864 5864 5864 5864 5864 5864 5864 5864 5864 5865 5865 5866 5867 5867 5868 5868 5869 5869 5870 5871 5872 5872 5872
5879 5878 5877 5876 5875 5874 5873 5872 5871 5871 5870 5869 5869 5868 5867 5867 5866 5865 5865 5864 5864 5863 5863 5863 5863 5862 5862 5862 5862 5862 5862 5862 5862 5863 5863 5863 5864 5864 5865 5865 5866 5866 5867 5867 5868 5869 5870 5870 5871
5879 5878 5877 5876 5875 5873 5872 5872 5871 5870 5869 5869 5868 5867 5866 5866 5865 5864 5864 5863 5863 5862 5862 5861 5861 5861 5861 5860 5861 5860 5860 5860 5861 5861 5861 5862 5862 5863 5863 5864 5864 5864 5865 5866 5866 5867 5868 5869 5869
5879 5878 5876 5875 5874 5873 5872 5871 5870 5869 5869 5868 5867 5866 5865 5865 5864 5863 5863 5862 5862 5861 5861 5860 5860 5859 5859 5859 5859 5859 5858 5859 5859 5859 5859 5860 5860 5861 5861 5862 5862 5863 5863 5864 5865 5865 5866 5867 5867
5878 5878 5876 5874 5873 5872 5871 5870 5869 5869 5868 5867 5866 5865 5864 5864 5863 5862 5862 5861 5861 5860 5859 5859 5858 5858 5857 5857 5857 5857 5857 5857 5857 5857 5858 5858 5858 5859 5860 5860 5860 5861 5861 5862 5863 5863 5864 5865 5865
5878 5878 5875 5874 5873 5872 5870 5870 5869 5868 5867 5866 5865 5865 5864 5863 5862 5862 5861 5860 5860 5859 5858 5857 5857 5856 5856 5856 5855 5855 5855 5855 5855 5855 5856 5856 5856 5857 5857 5858 5858 5859 5859 5860 5861 5861 5862 5863 5863
5877 5876 5875 5874 5872 5871 5870 5869 5868 5867 5866 5865 5864 5864 5863 5862 5862 5861 5860 5859 5859 5858 5857 5856 5855 5855 5854 5854 5854 5854 5854 5854 5854 5854 5854 5854 5854 5855 5855 5856 5856 5857 5857 5858 5858 5859 5860 5860 5861
5876 5875 5873 5872 5871 5870 5869 5868 5867 5866 5865 5865 5864 5863 5862 5862 5861 5860 5859 5859 5858 5857 5856 5855 5854 5854 5853 5853 5853 5852 5852 5852 5852 5852 5852 5852 5853 5853 5853 5854 5854 5854 5855 5855 5856 5857 5857 5858 5858
5875 5874 5872 5871 5870 5869 5868 5867 5867 5866 5865 5864 5863 5863 5862 5861 5860 5859 5858 5858 5857 5856 5855 5854 5853 5853 5852 5852 5851 5851 5851 5851 5850 5850 5850 5851 5851 5851 5851 5852 5852 5852 5853 5853 5854 5854 5855 5855 5856
5874 5873 5872 5871 5870 5869 5868 5867 5866 5865 5864 5863 5863 5862 5861 5860 5859 5859 5858 5857 5856 5855 5855 5854 5853 5852 5851 5851 5850 5850 5849 5849 5849 5849 5849 5849 5849 5849 5849 5850 5850 5850 5851 5851 5852 5852 5853 5853 5854
5874 5872 5871 5870 5869 5868 5867 5866 5865 5864 5863 5863 5862 5861 5860 5859 5859 5858 5857 5857 5856 5855 5854 5853 5852 5851 5850 5850 5849 5849 5848 5848 5848 5847 5847 5847 5847 5847 5847 5848 5848 5848 5849 5849 5850 5850 5851 5851 5851
5872 5872 5871 5870 5869 5868 5867 5866 5865 5864 5863 5862 5861 5861 5860 5859 5858 5857 5856 5856 5855 5854 5853 5852 5851 5850 5849 5848 5848 5847 5847 5846 5846 5846 5845 5845 5845 5845 5845 5845 5846 5846 5847 5847 5847 5848 5848 5849 5849
5872 5871 5870 5869 5868 5867 5868 5866 5864 5863 5862 5861 5860 5860 5859 5858 5857 5856 5855 5854 5854 5853 5852 5851 5850 5849 5848 5847 5847 5846 5845 5845 5844 5844 5844 5843 5843 5843 5843 5843 5844 5844 5845 5845 5845 5846 5846 5847 5847
5871 5870 5869 5868 5867 5866 5865 5864 5864 5862 5861 5860 5859 5858 5857 5856 5856 5855 5854 5853 5852 5851 5851 5850 5849 5848 5847 5846 5845 5844 5844 5843 5843 5842 5842 5842 5841 5841 5841 5841 5842 5842 5842 5843 5843 5843 5844 5844 5845
5870 5868 5867 5867 5866 5865 5864 5863 5862 5861 5860 5859 5858 5857 5856 5855 5855 5854 5853 5852 5851 5850 5849 5848 5848 5847 5846 5845 5844 5843 5842 5842 5841 5840 5840 5840 5839 5839 5839 5839 5839 5839 5840 5840 5840 5841 5841 5841 5842
5868 5867 5866 5865 5864 5863 5862 5861 5860 5859 5859 5858 5857 5856 5855 5854 5853 5852 5852 5851 5850 5849 5848 5847 5846 5845 5844 5843 5842 5841 5840 5840 5839 5838 5838 5838 5837 5837 5837 5837 5837 5837 5837 5837 5838 5838 5838 5838 5839
5865 5865 5864 5864 5862 5862 5861 5860 5859 5858 5857 5856 5855 5854 5853 5853 5852 5851 5850 5849 5848 5847 5846 5845 5845 5844 5843 5842 5841 5840 5839 5838 5837 5836 5836 5836 5835 5835 5835 5835 5834 5834 5835 5835 5835 5835 5835 5835 5835
5863 5863 5862 5862 5861 5860 5859 5859 5857 5856 5855 5855 5854 5853 5852 5851 5850 5849 5848 5847 5847 5846 5845 5844 5843 5842 5841 5840 5839 5838 5837 5836 5835 5835 5834 5833 5833 5833 5832 5832 5832 5832 5832 5832 5832 5832 5832 5832 5832
5861 5861 5860 5859 5859 5858 5857 5857 5856 5855 5854 5853 5852 5851 5850 5849 5848 5847 5847 5846 5845 5844 5843 5842 5841 5840 5839 5838 5837 5836 5835 5834 5833 5833 5832 5831 5831 5830 5830 5829 5829 5829 5829 5829 5829 5829 5828 5829 5829
5859 5858 5858 5857 5856 5856 5855 5854 5855 5853 5852 5851 5851 5849 5848 5847 5847 5846 5845 5844 5843 5842 5841 5840 5839 5837 5836 5835 5834 5833 5833 5832 5831 5830 5830 5829 5828 5827 5827 5827 5826 5826 5826 5826 5825 5825 5825 5825 5825
5856 5856 5855 5855 5854 5854 5853 5852 5852 5851 5850 5849 5848 5847 5846 5845 5845 5844 5843 5842 5841 5840 5838 5837 5836 5835 5834 5833 5832 5831 5830 5829 5828 5828 5827 5826 5825 5825 5824 5823 5823 5823 5822 5822 5822 5821 5821 5821 5821
5853 5853 5853 5852 5851 5851 5850 5849 5850 5848 5847 5846 5846 5845 5844 5843 5842 5841 5840 5839 5838 5837 5836 5835 5834 5833 5831 5830 5829 5828 5827 5826 5826 5825 5824 5823 5822 5821 5821 5820 5819 5819 5818 5818 5818 5817 5817 5817 5817
5849 5850 5850 5849 5848 5848 5847 5846 5847 5845 5844 5843 5843 5843 5842 5841 5840 5839 5838 5837 5836 5835 5833 5832 5831 5830 5829 5828 5827 5826 5825 5824 5822 5821 5820 5819 5819 5818 5817 5817 5816 5815 5814 5814 5814 5813 5813 5812 5812
5846 5845 5846 5845 5844 5844 5843 5843 5842 5841 5841 5840 5840 5840 5839 5838 5837 5836 5835 5834 5833 5832 5831 5829 5828 5827 5826 5825 5824 5823 5821 5820 5819 5818 5817 5816 5815 5815 5814 5813 5812 5811 5810 5810 5809 5808 5808 5807 5807
5842 5842 5842 5841 5840 5840 5840 5840 5839 5838 5837 5837 5837 5836 5836 5835 5834 5833 5831 5830 5830 5828 5827 5826 5825 5824 5823 5822 5821 5819 5818 5817 5816 5814 5813 5812 5812 5811 5810 5809 5808 5807 5806 5805 5804 5804 5803 5803 5802
5839 5838 5837 5837 5837 5836 5836 5839 5836 5835 5834 5834 5833 5833 5832 5832 5831 5830 5829 5828 5826 5825 5824 5823 5822 5821 5820 5818 5817 5816 5815 5813 5812 5811 5810 5809 5808 5807 5805 5804 5803 5802 5801 5801 5800 5799 5799 5798 5798
5834 5834 5833 5834 5833 5832 5832 5836 5832 5832 5831 5830 5829 5829 5829 5828 5827 5826 5825 5824 5823 5822 5821 5820 5819 5817 5816 5815 5814 5812 5811 5809 5808 5807 5806 5805 5803 5802 5801 5800 5799 5798 5797 5796 5796 5795 5794 5794 5793
Wind_Speed
5 5 5 5 5 4 3 2 2 2 2 3 3 3 4 4 4 4 4 5 5 6 6 7 7 8 8 9 9 9 9 9 10 10 9 9 9 9 9 9 9 9 9 9 8 9 9 8 8
5 5 5 5 5 3 2 2 2 2 2 3 3 3 4 4 4 4 4 5 5 6 7 8 8 8 8 9 9 9 9 9 10 10 10 9 10 11 10 10 10 9 10 10 9 8 8 9 9
5 5 5 5 5 4 3 2 2 3 3 3 3 3 4 4 4 4 4 5 5 5 6 6 7 7 8 8 9 10 10 10 10 10 10 10 10 11 11 11 10 10 10 10 11 10 9 9 10
5 5 5 5 4 4 3 3 3 3 3 3 3 3 3 3 4 4 4 5 5 5 5 5 6 6 7 7 8 9 9 10 10 10 10 10 10 10 10 10 10 10 10 9 10 10 9 9 9
5 5 5 5 5 4 4 3 3 4 3 4 4 4 3 3 3 3 4 4 4 4 5 5 6 6 7 7 8 8 9 10 9 9 10 10 10 10 10 10 10 10 10 10 10 10 9 9 9
5 5 5 5 4 4 4 4 3 3 4 4 4 4 3 3 3 3 4 4 4 4 5 5 6 6 7 7 7 8 8 9 9 9 10 10 10 10 10 10 10 10 10 10 10 11 10 10 9
5 5 5 5 4 4 4 3 3 3 4 4 4 4 3 3 3 4 3 4 5 5 5 5 6 6 6 7 7 7 7 8 9 9 10 10 10 10 10 10 10 9 10 10 10 10 10 10 10
5 5 5 4 5 4 4 4 4 4 4 4 4 4 4 3 3 3 3 4 4 5 5 4 5 6 5 6 6 6 6 7 8 8 9 9 10 10 11 11 10 10 10 10 10 10 10 10 10
4 4 4 4 5 4 4 4 4 5 4 4 4 3 4 3 3 3 3 4 4 4 4 4 5 5 5 5 6 6 6 6 7 7 8 9 9 10 11 11 11 11 11 10 10 11 11 11 11
5 4 4 5 5 5 5 5 5 5 4 4 4 4 4 3 4 4 4 3 4 4 4 4 4 4 4 4 5 5 6 6 7 6 7 8 8 9 10 11 11 11 11 11 11 11 11 11 11
5 5 4 4 5 5 5 5 5 5 4 4 4 4 4 4 4 4 4 3 3 3 3 3 3 3 3 3 4 4 4 5 5 5 6 6 7 8 8 10 11 11 11 11 10 10 10 11 11
4 4 5 5 4 5 6 6 6 5 4 3 3 4 4 4 4 4 4 4 3 3 3 3 3 3 3 2 2 3 3 4 4 5 5 6 6 7 8 8 9 10 10 10 10 10 10 10 10
4 4 4 4 4 4 5 6 5 5 4 3 3 3 4 4 4 3 3 3 3 3 3 3 3 2 3 3 3 3 4 4 5 5 5 5 6 7 8 8 8 9 9 9 10 9 9 10 9
4 4 4 4 4 4 4 5 5 5 4 4 3 3 3 4 4 4 3 3 3 3 3 4 4 4 3 3 3 4 4 5 5 5 5 6 6 7 8 8 8 8 8 9 9 10 10 9 9
4 4 3 4 4 4 4 5 5 5 5 4 4 3 4 4 4 4 4 3 3 3 4 4 4 5 4 4 4 5 5 5 5 5 6 6 6 6 7 7 8 8 8 8 9 9 10 10 9
5 4 4 4 4 3 3 4 5 5 5 4 4 4 4 4 4 4 4 4 4 4 4 5 5 5 6 5 5 5 4 4 5 5 5 5 6 6 6 7 7 7 8 8 9 9 10 10 9
5 5 4 4 4 4 4 4 4 5 5 4 4 4 4 4 5 5 5 5 4 5 5 5 6 6 6 6 6 5 5 5 5 6 6 6 6 6 6 6 7 7 8 8 9 9 9 10 10
5 5 5 4 5 4 4 4 5 5 5 4 4 5 5 5 4 4 4 5 5 5 6 6 6 6 6 6 6 6 6 6 6 6 6 5 5 6 6 7 8 8 8 8 9 9 9 10 10
5 5 5 5 5 5 5 5 4 5 5 5 4 5 5 5 5 4 4 5 5 5 6 6 6 6 6 6 6 6 6 6 6 6 6 6 6 6 7 8 8 8 9 9 9 10 10 10 10
7 7 6 6 6 6 5 4 4 4 5 5 5 5 5 5 5 5 6 5 5 6 6 6 7 7 7 7 6 6 6 6 7 6 6 7 7 7 8 8 8 9 9 9 10 10 10 10 10
7 7 7 6 6 6 5 4 4 4 4 5 4 5 6 6 5 6 6 6 6 6 6 7 7 7 8 8 7 7 7 7 7 7 7 7 8 8 8 8 8 9 9 9 10 10 10 11 11
7 7 8 8 7 7 6 4 4 4 4 4 5 6 6 5 5 6 6 6 6 7 7 8 8 8 8 8 8 8 8 8 8 8 8 8 8 9 9 9 9 10 10 10 11 11 11 11 12
8 8 8 8 7 7 6 6 4 4 4 4 5 6 7 6 6 6 7 7 7 8 8 8 8 9 8 8 9 9 9 9 9 9 9 9 9 9 9 10 10 11 11 12 12 12 12 12 13
8 8 8 8 8 8 7 6 4 5 5 5 6 6 7 7 7 7 8 8 8 8 8 8 9 9 9 9 9 10 10 10 10 10 10 10 10 10 10 10 11 12 12 12 12 12 13 13 14
9 9 9 9 9 9 9 8 6 6 6 6 7 7 8 8 8 8 8 9 9 9 9 10 10 10 10 10 10 10 11 11 11 11 11 11 11 11 12 12 12 12 12 13 13 14 14 15 15
10 10 11 11 10 10 10 10 8 8 8 8 7 8 8 9 8 8 8 9 9 9 10 10 10 10 10 10 10 10 11 11 11 12 12 12 11 11 12 12 13 13 13 14 14 15 15 16 16
11 11 11 12 12 12 11 11 10 10 9 9 9 9 9 9 9 9 9 9 9 9 10 10 10 10 10 10 10 10 11 11 12 12 12 11 11 11 12 12 12 13 14 15 15 15 16 16 16
11 11 12 12 13 13 11 9 9 9 9 10 10 9 9 10 10 10 10 11 10 10 11 11 11 11 11 11 11 11 12 12 12 12 12 12 12 12 13 13 14 15 15 15 15 16 16 16 16
12 13 13 13 13 12 11 9 10 11 11 10 11 11 11 12 11 11 11 11 11 11 11 12 12 12 12 12 12 12 12 13 13 12 12 12 13 13 14 14 15 15 15 15 15 15 15 15 15
14 14 14 14 13 14 14 12 12 13 13 12 12 12 13 12 12 11 11 12 12 12 12 12 13 13 13 13 13 13 13 13 13 13 13 13 14 14 14 14 14 15 15 15 15 15 15 15 15
Wind_Direction
332 332 330 330 322 308 301 297 301 311 323 316 309 307 303 295 292 284 271 266 266 266 265 265 265 266 264 262 259 258 259 257 253 252 251 245 243 243 244 244 243 239 238 238 237 234 234 237 236
338 336 329 325 323 323 310 319 335 340 329 320 316 313 310 308 301 289 279 274 271 273 269 267 266 267 265 262 258 255 256 256 253 249 247 246 244 242 240 243 243 240 238 237 234 236 240 242 240
345 344 338 326 324 318 315 325 340 345 337 328 321 312 312 309 308 300 289 283 280 280 275 271 270 270 268 264 261 254 253 254 253 250 247 244 244 242 242 243 241 238 236 238 237 237 242 247 244
349 348 330 325 326 326 331 336 341 344 341 334 330 319 309 306 306 306 300 289 284 282 284 282 278 274 271 267 264 259 252 250 250 247 243 242 242 242 243 244 238 237 240 240 240 240 243 247 245
345 337 326 326 328 332 341 343 347 342 346 339 333 322 314 312 310 312 311 301 293 291 291 288 283 279 274 269 265 261 256 251 248 244 242 239 240 242 242 241 239 239 241 240 240 240 243 247 245
338 333 324 326 329 337 346 347 349 348 343 340 339 328 320 317 321 321 317 306 301 297 292 288 283 279 273 268 265 261 260 255 248 245 243 240 241 243 243 242 241 239 239 241 240 239 239 242 244
336 332 329 330 334 340 339 345 351 340 337 339 340 332 327 330 324 321 319 311 305 299 293 290 285 281 278 272 268 263 259 257 251 246 246 244 243 243 240 241 240 241 243 244 241 240 240 240 242
336 334 334 345 350 350 347 341 336 331 330 336 337 336 339 337 328 323 322 318 312 309 301 294 291 286 283 275 270 266 262 261 255 248 247 247 244 242 239 242 240 242 245 246 245 245 244 247 247
338 337 338 347 349 355 355 346 336 331 333 341 342 338 337 334 329 328 329 329 324 318 311 302 295 291 282 278 273 265 264 263 262 256 252 249 248 247 246 246 246 247 245 247 248 247 249 250 250
338 333 336 347 352 355 356 349 343 338 340 346 347 348 341 336 332 333 334 339 335 329 321 309 304 296 284 277 275 268 263 265 264 260 255 251 249 250 247 247 247 247 247 250 249 249 248 248 248
339 336 339 345 351 352 350 350 347 341 336 342 343 346 345 340 339 343 341 342 343 342 333 320 310 300 294 281 273 269 265 265 265 264 262 255 250 247 244 244 244 247 247 248 249 249 247 248 250
343 344 341 339 342 346 347 348 348 346 346 340 345 348 340 340 346 351 353 352 351 348 343 341 331 309 301 294 285 273 271 271 273 269 265 255 247 246 243 244 246 248 250 251 250 251 249 249 251
337 346 342 341 340 344 343 349 354 357 356 358 354 348 341 339 343 346 347 347 343 340 342 346 344 323 308 293 285 278 276 283 284 272 269 261 252 249 247 245 249 252 254 255 252 249 249 251 250
335 339 338 343 342 345 346 352 356 355 355 357 352 344 335 331 328 329 334 333 323 326 331 335 334 326 312 299 293 291 283 282 286 279 270 264 260 260 257 254 253 253 255 254 250 248 251 252 250
331 335 333 337 341 348 349 350 349 354 355 356 350 344 341 333 326 322 320 317 315 313 318 326 328 326 317 311 305 298 289 282 284 285 279 271 266 263 260 255 254 254 254 256 252 250 252 253 251
326 325 333 335 335 342 344 349 354 351 347 349 346 336 333 328 321 316 310 309 311 312 313 318 322 326 324 314 311 313 296 294 291 290 286 278 272 269 268 263 260 256 255 256 253 253 254 254 253
321 327 334 335 327 321 327 340 346 344 337 336 340 333 326 324 320 314 309 310 309 312 313 315 316 320 324 320 315 315 300 295 294 292 289 284 279 273 269 263 263 259 257 257 258 257 256 256 254
314 325 330 329 322 316 320 327 328 333 333 334 334 332 329 326 324 318 315 316 312 311 313 314 313 315 316 316 311 310 305 295 296 293 288 282 279 275 273 269 268 262 258 259 261 262 259 254 254
304 313 320 319 316 313 319 320 317 323 328 335 330 327 332 332 325 319 317 317 313 310 311 314 314 313 313 312 309 307 309 303 300 294 287 283 283 278 276 273 273 264 260 260 259 259 258 256 256
294 299 303 308 310 311 315 323 317 321 330 337 334 331 330 329 325 320 320 318 314 309 308 311 313 312 311 309 307 305 306 306 304 296 285 280 282 280 279 275 272 267 265 263 260 260 260 259 258
286 293 297 300 302 305 307 312 313 317 323 329 332 338 334 328 323 321 319 314 310 308 306 307 306 306 308 305 302 298 298 299 299 296 294 290 285 281 281 279 273 271 272 268 264 263 263 262 260
279 284 289 293 292 294 296 303 309 307 315 324 332 335 331 323 318 316 313 311 307 307 306 302 300 300 301 299 297 296 296 297 296 294 291 288 286 283 281 279 277 276 274 273 270 267 264 263 261
274 277 282 290 291 288 287 292 307 302 313 322 325 327 326 321 314 313 311 309 307 304 302 300 299 302 301 296 294 294 294 293 293 292 289 286 285 282 282 281 279 278 275 273 272 269 264 262 262
268 274 277 284 288 283 282 286 298 303 312 317 322 326 323 318 310 310 309 309 308 303 302 301 300 302 303 301 298 295 294 292 290 290 290 288 286 284 282 282 281 278 275 274 273 271 266 265 266
264 269 273 277 279 277 277 281 292 293 301 307 315 320 318 312 305 302 302 303 304 304 305 303 301 300 300 301 300 297 296 294 291 288 288 286 283 285 283 283 282 280 276 277 275 275 272 269 269
262 267 271 272 273 276 277 282 291 292 297 302 307 312 311 308 305 302 298 300 300 301 304 303 300 298 297 298 298 297 296 296 296 293 288 284 281 282 283 283 282 280 277 276 276 276 275 271 270
264 268 271 273 274 275 279 285 284 285 288 293 299 304 308 310 308 304 300 298 297 298 300 301 301 299 297 298 296 297 298 298 297 297 292 285 280 280 281 282 282 281 279 279 278 279 279 275 272
264 268 269 271 275 276 278 283 291 281 280 289 295 300 304 308 309 307 303 299 296 296 294 295 297 297 295 294 295 297 298 297 296 294 292 289 286 283 281 281 283 282 280 278 277 280 281 277 274
263 266 269 270 273 275 274 274 280 280 283 290 296 297 302 304 304 304 302 300 298 296 293 292 293 295 295 291 289 293 295 294 294 294 291 288 287 285 284 284 285 284 281 278 278 279 278 276 274
262 264 266 267 270 269 271 273 274 277 282 285 288 291 295 298 302 302 301 298 296 294 293 291 290 291 290 289 289 290 291 292 291 291 290 289 287 285 285 285 285 284 283 279 279 280 277 276 277